Location: Deuil
(48.9767°N, 2.3272°E)
Time: 02:11:46
(UTC+00:00)

Cosmos 2360 Rocket - Pass Details

Date: 25 May 2022
Orbit: 832 x 846 km, 71.0° (Epoch: 03 July)

Event Time Altitude Azimuth Distance (km) Brightness Sun altitude
Exits shadow 21:57:00 23° 133° (SE) 1,728 3.3 -15.7°
Maximum altitude 21:58:48 27° 103° (ESE) 1,563 3.3 -15.9°
Drops below altitude 10° 22:03:27 10° 48° (NE) 2,464 4.8 -16.2°
Sets 22:06:14 0° 37° (NE) 3,406 5.8 -16.4°
